Location: Grand Lay
(47.3253°N, 0.9468°E)
Time: 17:57:14
(UTC+00:00)

Cosmos 1140 Rocket - Pass Details

Date: 18 January 2026
Orbit: 739 x 763 km, 74.1° (Epoch: 16 February)

Event Time Altitude Azimuth Distance (km) Brightness Sun altitude
Rises 06:09:15 0° 221° (SW) 3,164 6.4 -14.5°
Reaches altitude 10° 06:11:42 10° 228° (SW) 2,247 5.6 -14.1°
Maximum altitude 06:16:32 42° 299° (WNW) 1,053 3.8 -13.3°
Drops below altitude 10° 06:21:24 10° 11° (N) 2,272 5.9 -12.5°
Sets 06:23:55 0° 18° (NNE) 3,204 6.7 -12.1°
